Location: Unspecified
(10.5000°N, 0.0000°E)
Time: 21:39:12
(UTC+00:00)

Envisat - Pass Details

Date: 24 June 2019
Orbit: 764 x 766 km, 98.1° (Epoch: 18 July)

Event Time Altitude Azimuth Distance (km) Brightness Sun altitude
Rises 18:39:16 0° 166° (SSE) 3,223 5.9 -4.1°
Reaches altitude 10° 18:41:34 10° 166° (SSE) 2,297 5.1 -4.6°
Maximum altitude 18:46:38 84° 79° (E) 773 3.0 -5.8°
Drops below altitude 10° 18:51:42 10° 350° (N) 2,296 6.0 -6.9°
Sets 18:54:00 0° 350° (N) 3,221 6.8 -7.4°
